Wind_Speed
8 6 7 5 6 7 6 5 5 4 2 3 2 0 1 2 0 1 1 2 6 4 2 4 5 4 4 4 5 7 6 4 5 5 4 4 5 6 8 9 11 12 13 13 14 13 13 13 14 13 13 14 15 17 19 20 21 20 19 19 19 20 20 20 21 22 23 25 24 23 24 26 27 27 28 29 27 26 23 20 18 17 17 17 16 15
5 8 7 4 3 5 4 2 2 2 2 2 1 0 0 1 1 1 2 3 6 3 1 5 5 4 2 3 4 6 5 3 5 6 5 5 6 6 8 9 10 11 13 13 14 14 14 13 13 13 13 13 13 15 17 19 20 20 20 19 19 19 20 20 21 21 23 24 24 23 23 23 24 24 26 28 27 26 24 22 21 19 17 14 10 11
6 9 5 4 0 0 3 2 0 2 2 2 1 1 0 2 3 3 1 3 6 3 2 6 5 4 2 3 4 4 4 3 4 5 4 5 6 7 8 9 10 11 13 13 13 15 16 14 12 12 12 12 12 13 14 16 18 20 20 20 19 19 19 19 20 20 21 21 21 21 21 21 22 22 23 24 24 23 21 21 21 19 17 14 10 9
7 6 5 3 2 2 3 4 1 2 1 3 3 1 0 2 3 1 2 4 6 2 3 6 4 4 3 3 4 3 4 4 4 3 3 3 5 7 8 9 11 12 13 14 13 15 18 18 13 11 12 12 12 13 13 14 15 17 19 19 19 19 18 18 18 18 18 18 18 18 19 19 20 21 21 21 21 20 20 20 19 18 16 15 13 12
7 4 5 1 3 2 1 5 4 1 1 2 2 2 1 2 3 3 2 6 4 2 3 5 4 4 4 4 4 3 3 4 3 3 3 3 5 6 8 10 11 12 13 14 13 14 18 20 15 10 10 12 13 13 13 13 14 15 17 18 19 19 18 17 16 16 15 14 14 14 15 15 16 17 18 19 20 20 21 21 20 18 17 14 14 13
7 4 4 1 1 1 1 4 5 3 1 2 1 1 2 3 4 5 4 5 3 3 2 4 3 1 4 5 4 3 3 4 3 3 3 3 5 7 10 12 12 12 14 13 12 13 17 20 16 10 9 11 12 14 14 14 14 13 14 16 17 18 17 16 16 15 14 13 12 12 12 13 14 15 18 19 20 21 22 21 21 21 20 18 17 17
3 3 3 2 2 2 1 2 2 3 3 0 1 1 2 4 4 3 3 3 2 1 2 3 4 2 3 6 5 3 4 5 3 3 3 3 5 7 10 12 13 13 14 13 11 12 16 18 16 11 9 10 12 13 14 14 14 13 13 13 14 16 16 16 15 15 13 12 12 12 13 13 14 15 18 18 18 19 19 19 20 21 21 20 20 20
1 3 5 3 1 1 2 2 2 3 4 1 2 2 4 3 3 1 1 1 2 2 2 1 2 3 2 3 4 1 5 6 4 3 2 2 5 8 10 12 13 12 13 14 11 11 15 16 15 13 11 10 11 13 14 15 15 14 13 13 12 13 14 15 15 15 14 13 12 12 12 12 12 13 14 15 15 15 15 15 16 16 17 17 18 18
2 4 6 5 4 3 3 4 3 3 3 2 2 2 2 0 1 1 1 0 1 3 2 2 3 4 2 2 3 1 4 6 4 2 2 3 5 8 10 12 12 12 13 13 12 12 14 15 14 12 11 10 11 12 13 15 15 15 15 13 13 12 11 12 13 14 14 13 12 11 10 10 10 12 12 12 12 12 12 12 12 13 13 13 14 14
2 3 3 4 5 4 4 5 3 2 2 2 2 1 2 2 2 0 2 0 0 2 1 3 5 4 2 1 3 2 3 4 4 3 3 3 5 7 10 12 13 13 14 14 13 14 14 14 12 10 10 10 11 12 12 14 14 15 15 14 14 12 11 10 11 11 12 13 12 11 10 9 9 9 10 10 10 9 9 9 10 10 10 11 10 11
1 1 1 2 3 5 6 4 2 2 1 1 3 1 2 2 1 1 1 1 2 2 2 3 5 4 3 1 2 1 0 2 4 4 4 5 5 6 8 13 15 14 14 13 14 15 14 14 11 9 9 9 10 11 12 13 13 14 14 14 14 13 12 11 9 9 9 10 11 11 10 9 8 8 8 8 7 7 7 7 8 8 9 9 9 9
1 1 1 1 4 6 4 2 1 4 3 2 3 2 2 2 2 3 1 1 3 1 3 2 3 2 3 1 1 1 1 2 5 5 5 6 6 7 8 13 17 17 15 13 14 15 15 14 11 8 8 8 9 10 11 12 13 14 14 13 13 13 13 12 10 8 7 7 8 9 10 9 8 7 6 6 5 5 6 6 7 7 7 7 8 7
2 2 2 2 3 9 5 2 1 4 3 2 1 2 2 1 0 1 0 1 2 2 3 2 3 2 5 2 1 2 3 4 6 7 8 8 9 10 10 14 18 19 18 15 13 15 16 15 12 9 8 8 9 10 11 12 13 14 14 14 13 12 12 12 11 10 8 6 5 5 6 7 8 7 6 5 4 4 4 4 5 5 5 5 5 5
1 2 3 1 2 11 9 3 1 0 3 5 2 3 3 2 3 2 2 2 3 1 3 2 2 3 4 2 2 2 1 2 5 8 10 11 12 13 14 15 18 20 21 18 14 14 15 16 14 11 9 9 10 11 11 12 13 14 14 14 13 12 11 11 11 10 10 9 7 5 4 4 5 6 6 5 4 4 4 3 3 3 3 3 3 3
1 1 4 3 3 8 7 4 3 3 4 3 1 3 3 3 3 3 2 3 4 4 1 1 1 3 2 1 1 0 1 4 7 10 12 13 14 15 16 18 19 21 22 20 16 14 14 15 15 13 11 11 11 11 12 12 13 14 14 14 14 14 13 11 11 10 10 10 9 8 6 4 3 3 4 5 4 4 4 4 3 3 3 2 1 1
2 0 3 3 3 5 4 2 3 3 2 0 2 2 2 3 2 2 1 2 2 4 3 1 2 3 2 1 1 2 4 7 9 10 12 14 14 15 18 20 20 20 22 20 17 15 15 14 15 14 13 12 12 12 13 13 14 14 14 14 14 14 14 13 12 11 10 10 10 10 9 8 6 5 4 4 4 4 4 3 3 3 3 3 3 2
2 0 1 1 1 2 3 2 2 3 2 1 1 1 2 2 2 0 1 1 1 2 2 1 3 4 2 0 1 1 4 5 6 7 10 13 14 15 17 18 18 19 20 20 17 16 16 16 16 15 14 13 13 13 13 14 14 14 15 14 14 15 14 14 13 12 11 10 10 10 10 11 10 9 8 7 6 5 5 4 4 3 3 4 4 4
2 1 2 1 1 2 3 1 2 6 4 2 2 3 2 0 0 0 1 1 1 3 2 1 4 5 3 1 1 1 2 3 3 5 8 11 12 12 13 15 16 18 18 18 17 17 16 17 18 17 16 15 14 15 15 15 15 15 15 15 14 14 15 14 14 13 12 11 10 10 10 11 11 12 12 11 10 9 8 7 6 5 5 5 5 5
2 2 2 1 1 3 3 2 0 6 8 6 4 4 1 1 0 0 1 2 2 4 4 2 3 4 3 1 1 2 3 1 1 2 4 7 7 9 11 14 17 18 18 17 17 17 17 17 17 18 17 16 15 15 16 16 16 15 16 15 15 15 15 15 15 14 13 12 11 11 11 11 11 12 13 13 13 13 12 11 10 9 8 7 7 7
1 2 1 2 1 2 2 1 1 3 6 5 4 2 1 1 2 2 1 1 2 3 4 3 3 2 3 2 1 3 4 3 2 2 3 5 6 9 12 15 19 20 19 17 17 18 18 17 16 17 17 17 16 16 16 16 16 16 17 16 15 15 16 15 15 15 14 13 12 11 11 11 11 12 13 14 14 15 15 15 14 13 12 11 10 10
1 1 2 1 1 2 0 2 2 2 1 0 1 1 1 1 0 1 1 0 2 3 3 3 5 4 0 2 3 3 2 2 2 2 4 7 9 12 14 18 21 22 20 17 17 18 19 18 17 17 17 17 17 17 16 16 16 16 17 17 16 16 16 16 16 16 16 15 14 13 12 12 13 13 14 14 15 14 15 15 16 17 16 16 15 13
1 0 2 2 1 0 2 2 2 2 1 2 1 1 1 1 1 1 1 1 1 2 1 1 6 7 2 1 3 2 1 2 3 4 7 10 13 16 19 21 23 23 20 17 17 18 18 18 18 18 18 18 18 18 17 17 16 16 16 16 16 17 17 16 16 17 16 16 16 15 14 14 14 14 15 16 16 15 15 14 15 17 18 19 19 18
0 0 2 4 2 2 4 3 1 0 1 1 1 1 0 0 1 2 2 0 1 1 0 1 4 6 1 1 3 4 4 6 7 8 10 13 18 22 24 25 24 22 19 17 16 16 17 17 18 18 19 20 19 19 19 18 18 17 17 17 17 17 17 16 16 17 17 17 17 16 16 16 15 15 16 16 17 17 16 15 15 16 17 18 19 20
1 0 2 4 1 4 4 3 2 1 0 2 2 2 2 1 1 1 2 1 1 3 2 1 4 5 1 2 3 5 6 8 9 11 13 17 23 27 27 26 25 23 20 17 16 16 17 18 18 19 20 20 20 20 19 19 19 19 19 18 18 18 17 17 17 17 18 18 18 17 17 18 17 17 17 17 17 18 18 18 17 17 17 18 18 19
2 0 2 4 3 1 1 1 1 1 1 3 2 2 3 3 5 2 2 1 3 4 4 3 5 4 1 2 2 3 4 8 12 14 17 21 26 28 28 27 25 23 21 18 17 17 17 18 19 20 20 20 20 19 19 20 19 20 20 19 19 19 19 18 18 18 19 19 19 19 19 18 18 18 18 18 18 18 18 20 20 20 20 19 19 19
1 1 1 3 4 3 4 3 2 2 0 2 2 3 5 6 7 3 1 2 3 2 5 5 6 4 2 3 5 4 4 9 16 18 18 21 26 28 27 26 23 21 21 19 18 17 17 17 18 19 20 20 20 20 20 20 20 20 20 20 20 20 20 20 20 20 20 20 20 20 20 20 20 19 19 19 19 19 19 20 21 21 22 22 21 21
0 1 3 4 4 6 7 4 1 1 4 4 4 6 7 7 7 4 1 3 3 3 5 10 10 11 14 11 8 8 7 9 14 17 17 22 28 28 25 24 23 21 21 21 20 20 18 17 17 18 19 19 20 20 20 20 21 21 21 21 21 21 22 22 22 23 23 22 22 22 21 21 21 20 20 20 20 20 21 21 20 21 22 23 23 23
0 2 3 4 8 9 8 6 1 2 9 11 7 6 9 9 8 7 7 5 4 2 6 7 6 10 15 15 13 15 13 10 14 18 18 23 30 28 25 24 22 21 22 22 21 19 17 17 18 18 18 18 20 21 21 21 21 21 22 22 21 22 23 24 24 25 26 26 26 25 23 22 21 22 22 22 21 22 22 22 22 21 22 23 24 24
1 3 1 2 8 11 10 10 7 6 10 11 10 9 9 11 12 13 14 9 7 8 10 4 3 10 15 17 17 18 17 15 20 26 26 28 31 28 25 25 23 23 24 22 19 17 17 18 19 19 19 19 20 21 22 22 22 22 22 23 22 23 23 25 26 27 27 28 28 27 26 24 23 22 23 23 23 23 23 23 23 23 23 23 24 24
1 2 0 1 8 11 10 9 8 8 10 10 11 12 12 13 15 16 16 12 11 16 18 14 15 17 18 19 19 24 27 25 26 31 31 30 30 27 26 25 24 24 24 21 18 17 18 19 19 19 20 20 20 21 22 23 23 24 23 23 23 23 23 25 27 28 28 29 29 28 28 28 26 25 24 24 24 24 24 24 25 25 25 25 25 25
2 1 1 0 6 6 2 2 4 8 10 11 12 11 11 12 13 14 15 12 12 16 18 17 17 16 20 23 21 23 28 24 23 27 28 28 28 26 26 27 26 25 23 21 20 20 20 20 21 21 21 21 22 22 23 24 24 26 26 25 24 23 23 25 27 29 29 30 30 29 30 30 29 28 26 25 25 25 25 25 26 26 27 27 27 26
2 1 1 1 5 3 3 2 5 8 10 11 13 11 11 12 9 10 11 10 12 12 9 8 9 9 14 17 14 17 19 17 20 25 26 27 27 27 28 28 28 26 23 22 22 23 24 24 24 25 25 24 24 23 24 24 26 27 28 27 26 25 25 26 27 29 30 30 31 31 31 32 32 31 29 27 27 26 26 26 27 27 28 28 29 28
3 3 1 1 4 3 2 4 8 10 7 5 4 4 10 11 8 7 7 10 14 12 6 5 8 8 9 9 10 13 14 14 19 23 23 25 27 28 29 29 28 26 23 23 25 26 27 28 28 28 28 28 27 26 25 26 27 29 29 29 29 28 27 28 28 29 30 31 31 32 32 33 33 34 32 30 28 27 27 28 29 28 28 28 29 29
3 2 1 1 3 3 4 7 7 6 4 0 1 3 7 8 10 10 9 11 14 12 8 8 9 10 12 11 11 14 18 20 23 25 24 26 29 29 28 26 25 25 25 26 27 29 30 31 31 31 31 30 29 29 28 28 28 29 29 30 31 31 30 30 30 31 32 32 32 32 32 33 34 35 35 33 31 29 29 29 29 29 29 29 29 30
4 3 2 1 2 3 4 6 5 2 0 2 2 3 2 3 8 12 14 12 13 15 15 14 14 15 19 23 24 28 33 32 28 27 26 26 27 28 27 24 24 25 27 28 29 32 33 33 34 34 33 32 31 30 31 30 29 30 30 30 31 32 32 32 33 33 34 34 34 33 32 33 34 35 35 35 33 32 31 31 30 30 30 29 29 30
4 3 2 1 2 3 2 1 2 5 6 3 0 2 1 1 4 6 11 10 11 15 16 15 17 22 29 34 34 33 37 35 29 28 27 22 21 23 24 25 26 27 27 28 30 33 36 36 35 35 34 34 32 31 31 31 30 29 30 30 31 32 33 33 34 35 35 35 35 34 33 32 33 34 34 35 34 33 32 32 31 31 30 30 30 31
2 2 1 2 2 2 2 2 4 8 8 3 2 3 3 4 4 1 4 8 9 15 18 15 14 22 31 35 34 31 32 29 22 17 16 16 17 20 23 25 27 27 29 30 32 35 37 36 35 34 34 34 33 32 31 30 30 30 31 32 31 31 32 34 35 35 35 35 35 35 34 33 32 33 33 34 34 34 33 32 32 31 30 30 31 31
1 1 1 2 2 1 1 3 4 5 4 1 3 4 5 6 6 6 1 9 10 13 22 20 16 21 28 31 30 24 17 16 11 5 8 17 22 23 25 28 30 31 33 34 36 37 37 35 34 34 34 34 33 31 29 28 29 30 32 33 33 33 33 35 35 35 34 34 35 35 35 34 33 33 33 33 34 34 33 32 31 31 30 30 31 30
4 3 1 1 1 1 1 2 2 3 4 2 4 5 8 9 8 4 2 6 3 8 18 23 22 25 26 27 26 16 6 8 10 9 17 27 31 32 33 35 35 36 36 37 37 37 36 35 34 34 34 34 33 30 28 27 27 29 31 33 33 34 35 36 35 33 33 34 34 35 36 36 35 34 33 33 33 33 33 32 31 31 31 31 31 30
3 1 1 2 3 2 2 2 3 5 6 3 5 8 10 10 6 1 4 3 4 8 12 18 22 24 22 23 22 11 5 9 14 22 33 38 38 38 38 38 38 38 38 38 37 36 35 34 34 35 34 32 31 28 27 27 27 29 31 32 32 35 36 35 33 32 33 33 33 34 36 36 35 34 34 33 33 32 32 32 32 32 32 32 31 30
0 1 1 2 2 3 4 3 3 5 6 5 9 13 15 10 3 3 3 2 3 6 9 12 17 20 20 22 20 15 18 27 32 38 43 42 41 41 39 38 39 39 39 38 36 34 34 33 33 33 33 31 28 27 26 26 28 30 30 30 33 35 34 32 31 31 32 33 33 34 35 35 34 35 34 33 33 33 32 32 32 32 33 32 32 31
2 2 2 2 1 2 3 3 3 6 8 7 13 17 15 7 1 4 4 6 9 11 14 17 20 22 23 26 27 29 34 40 41 43 44 42 41 42 40 39 40 39 38 37 35 34 33 32 31 31 31 29 27 27 26 27 29 30 30 30 32 32 29 28 30 31 32 34 35 35 35 35 35 35 35 34 33 33 33 33 32 32 32 33 33 32
5 4 3 4 3 2 0 2 2 5 4 14 19 12 10 8 7 6 8 16 21 22 23 25 28 29 28 29 33 37 40 41 42 43 44 43 41 41 41 41 41 40 39 37 34 33 32 31 31 30 29 28 27 26 26 27 29 30 30 31 31 29 28 28 29 30 32 34 36 36 36 36 36 36 36 35 34 34 34 33 32 32 32 33 33 33
5 5 2 3 5 3 2 5 4 2 9 26 21 7 12 19 22 22 21 26 31 31 31 31 33 35 33 32 36 40 41 42 43 43 43 42 42 41 41 40 39 39 38 36 34 31 30 30 30 29 28 27 26 25 26 27 30 31 31 30 30 29 29 29 28 30 32 33 35 36 36 37 37 37 36 35 35 35 35 33 32 31 31 32 33 33
11 12 3 1 6 6 5 9 6 4 8 24 23 21 25 29 31 29 27 31 36 38 38 37 38 39 37 35 37 39 41 42 42 42 43 43 43 41 40 39 37 36 35 35 33 31 29 30 30 30 28 26 24 24 25 26 29 31 31 29 28 29 29 29 29 30 31 32 33 34 35 36 37 37 36 35 35 35 34 33 31 31 31 31 32 33
13 16 6 1 3 6 16 24 23 25 30 31 33 37 41 40 38 34 34 37 40 41 40 38 39 40 38 37 37 39 41 43 42 42 43 43 43 42 40 38 36 33 32 32 31 30 30 30 30 30 29 26 22 21 22 23 26 29 29 28 27 28 29 29 30 31 31 31 32 32 33 35 36 36 35 34 34 34 33 32 31 31 31 31 32 32
10 17 10 2 1 2 9 14 18 26 37 37 34 37 41 41 40 39 39 40 41 40 38 37 39 39 39 39 39 40 43 43 42 43 43 43 43 42 40 39 36 33 31 30 29 29 30 30 30 30 29 26 22 20 20 22 24 26 27 27 26 28 29 30 31 31 31 31 31 31 32 34 35 35 34 33 33 33 32 30 29 30 30 30 30 30
6 13 9 5 6 7 10 15 19 25 34 37 37 37 40 43 43 40 39 39 38 37 37 38 40 40 40 41 41 41 43 44 43 43 43 43 42 41 41 39 37 34 31 29 27 28 29 30 30 29 28 27 24 21 21 21 24 25 27 27 28 28 30 31 31 31 32 32 32 32 32 32 33 34 33 32 32 32 30 28 28 29 29 28 27 27
7 8 6 4 6 8 15 25 27 26 31 40 42 39 38 40 38 35 34 35 35 37 39 40 41 41 42 43 42 41 43 44 43 42 42 43 43 42 41 39 37 36 34 30 27 27 28 30 30 30 29 27 25 23 22 22 24 26 27 28 29 29 31 32 32 31 32 32 32 32 32 32 32 33 32 32 31 30 29 27 27 27 27 25 23 23
8 6 5 4 3 5 12 18 14 9 15 26 30 29 30 33 33 33 34 36 37 40 40 40 42 43 42 43 42 41 43 45 44 42 43 44 43 42 41 39 38 36 34 31 29 29 28 29 30 30 29 27 26 25 24 24 26 28 28 29 30 31 32 34 34 33 33 31 32 32 31 31 32 32 32 33 32 30 28 26 25 26 25 23 21 21
21 15 10 9 8 11 23 28 18 13 21 29 29 30 33 36 37 39 40 41 41 42 41 40 42 43 42 42 42 41 43 45 44 43 44 44 43 41 40 39 37 36 34 32 31 30 29 28 29 30 30 28 27 26 25 26 29 31 30 30 31 32 34 35 35 36 35 33 32 31 31 31 32 31 32 32 32 30 29 26 25 24 24 22 20 19
Wind_Direction
44 68 52 31 13 9 8 19 60 83 82 109 109 102 318 299 86 61 295 12 342 313 53 5 318 293 308 331 335 332 329 335 347 350 352 350 353 355 353 352 357 4 5 4 5 1 354 348 347 347 351 358 1 2 5 9 12 13 14 18 23 24 22 22 25 26 30 34 36 36 39 44 43 44 53 60 65 69 72 75 76 78 85 88 93 95
42 64 48 15 10 7 19 44 82 88 89 99 111 170 276 291 348 341 285 350 336 305 84 3 316 269 287 311 311 321 317 334 351 341 338 341 342 343 340 342 349 355 359 4 5 3 359 350 344 345 345 347 353 357 359 6 11 13 17 19 23 24 20 24 29 28 28 30 31 35 37 43 48 44 44 51 58 64 69 72 72 74 78 77 79 83
55 60 28 357 58 94 59 69 129 84 61 52 74 210 226 355 311 280 232 353 341 323 356 351 310 254 258 283 282 301 298 306 329 323 324 333 338 336 331 335 345 349 350 355 360 0 1 356 343 340 344 345 347 351 353 359 8 13 18 21 23 24 20 22 31 32 30 31 30 33 36 40 49 51 48 48 52 59 68 76 79 80 85 92 99 95
58 47 10 359 215 220 51 44 70 132 73 40 36 287 304 5 316 242 116 352 345 1 331 323 281 246 233 234 243 256 277 291 310 312 308 328 339 329 327 338 348 348 344 345 351 354 357 359 350 334 340 346 346 348 349 351 1 10 16 21 23 26 23 20 28 35 33 32 31 32 38 42 47 52 55 56 56 59 63 72 80 86 92 100 105 105
74 8 344 315 208 240 354 38 33 288 111 84 15 330 325 340 307 276 319 326 312 170 322 313 254 222 206 212 218 214 259 270 282 304 295 323 338 330 338 347 347 344 341 341 344 349 352 357 357 339 332 343 347 349 350 348 352 4 13 19 22 26 27 21 22 33 36 34 34 36 43 52 58 60 62 62 62 62 63 64 71 76 80 86 91 96
67 5 342 252 112 23 314 40 24 316 294 154 223 278 297 311 286 276 300 308 258 175 25 339 286 191 168 208 224 205 252 255 261 304 299 328 341 344 350 347 342 339 339 340 340 346 351 354 358 351 332 337 344 347 351 351 348 354 5 14 20 24 27 24 18 24 33 34 32 36 42 50 57 59 60 60 59 60 62 63 67 71 74 77 80 81
61 19 30 56 70 52 42 67 56 314 308 217 124 203 269 292 270 274 309 297 288 325 6 343 323 333 178 205 207 203 266 260 263 284 285 332 344 352 352 344 343 342 341 342 339 344 350 351 355 356 342 335 340 345 348 352 351 349 353 2 14 21 24 26 21 19 27 33 31 31 36 44 49 53 55 56 57 59 62 65 67 71 74 76 78 80
10 13 32 32 47 57 38 30 26 331 311 5 78 262 270 276 247 252 326 300 359 314 274 13 338 288 252 190 172 221 283 264 260 261 258 332 344 350 349 344 348 348 348 347 341 341 347 350 352 355 352 342 341 345 347 351 354 352 349 349 358 12 21 25 23 18 20 28 34 31 33 43 52 57 59 58 59 60 62 64 66 68 72 74 77 80
1 10 13 357 3 27 16 338 327 304 310 40 61 294 282 340 132 107 286 146 46 285 233 55 344 279 271 130 151 239 282 274 286 290 274 320 338 341 342 345 352 354 354 351 345 340 342 347 351 354 358 357 353 353 352 353 354 354 352 347 346 353 8 20 25 22 17 19 28 33 32 37 51 61 65 63 63 63 63 65 67 69 70 71 74 76
48 31 5 347 6 4 330 320 305 272 332 46 107 121 125 121 105 152 295 77 142 266 212 26 347 321 307 161 167 211 264 284 308 310 277 283 314 325 334 346 354 356 353 350 348 342 339 343 349 356 4 8 7 4 0 359 357 355 353 349 346 343 347 0 17 25 22 15 17 26 33 34 41 54 65 68 69 70 71 73 75 77 78 78 78 79
106 104 25 17 15 326 298 304 280 223 356 130 187 210 178 175 150 186 311 7 245 247 122 59 9 349 319 183 172 214 259 300 301 297 270 255 281 314 337 351 356 355 348 345 348 347 343 342 345 355 5 10 11 9 7 5 2 360 356 351 347 342 339 340 351 12 25 21 13 14 22 30 33 39 52 62 72 80 84 87 88 88 89 91 91 91
153 117 45 339 358 336 286 246 216 193 197 206 215 250 218 192 190 198 182 187 264 309 108 82 14 315 264 221 139 204 182 240 266 280 283 270 280 307 336 354 358 355 344 338 344 349 348 345 342 345 355 2 4 6 6 4 3 2 360 356 348 342 339 335 333 340 360 20 22 13 9 15 23 29 36 42 52 69 82 91 96 96 96 98 100 101
139 94 347 274 5 2 330 243 170 178 218 295 263 273 278 267 246 241 43 204 271 350 108 94 359 273 246 258 135 193 220 239 254 264 276 282 285 293 315 341 352 352 344 333 336 346 348 346 341 333 334 344 349 355 359 358 359 359 358 357 353 345 339 335 331 325 325 339 4 20 14 6 7 12 22 28 28 32 47 68 80 90 94 94 98 101
125 141 357 297 36 5 357 349 10 334 340 355 353 324 335 11 3 339 334 292 287 353 115 118 336 281 261 263 161 176 202 244 263 262 261 270 280 287 300 320 335 344 343 332 327 338 347 345 340 331 322 327 335 342 348 349 351 351 352 354 353 350 344 337 332 324 315 312 315 331 358 8 3 358 1 8 12 14 12 16 30 49 71 82 91 93
11 98 12 20 353 354 9 24 352 313 333 0 312 313 5 38 354 334 325 310 314 318 295 149 250 276 302 34 89 94 302 279 277 268 258 263 275 285 296 309 321 332 335 331 323 325 337 342 339 332 319 314 320 329 336 340 342 343 344 346 349 351 348 342 336 328 318 309 301 299 302 315 337 346 348 350 351 357 359 359 358 357 0 8 24 54
320 27 30 30 358 353 10 7 321 286 299 17 233 279 19 31 329 332 16 350 327 309 288 219 234 264 283 57 40 312 291 286 283 270 260 266 276 285 295 307 317 324 327 327 324 320 324 333 336 333 322 311 310 317 325 330 334 336 337 338 341 345 346 346 342 335 325 315 304 295 288 286 288 293 304 315 324 330 336 345 347 346 342 335 332 330
319 119 82 17 14 27 8 351 350 339 306 276 331 20 55 3 305 42 71 98 195 271 280 275 282 284 283 123 88 301 285 280 273 264 258 266 279 288 298 309 318 321 322 323 326 324 321 323 327 329 326 315 306 308 315 321 325 330 332 331 333 336 340 342 342 339 333 324 313 301 291 285 280 276 276 277 282 291 299 309 316 320 320 320 321 318
316 268 96 2 216 42 358 318 31 17 352 305 1 80 112 213 292 240 298 288 258 280 291 319 297 299 310 341 128 188 258 261 249 251 258 269 283 292 301 312 320 322 320 319 322 324 323 323 323 323 323 319 311 306 307 312 316 321 326 327 327 329 332 334 337 338 334 328 322 312 302 293 285 279 275 271 267 267 271 275 279 285 288 291 296 297
290 279 102 155 262 11 351 264 170 44 39 45 94 119 159 291 4 350 313 333 330 306 295 292 297 281 244 207 140 172 204 242 241 237 263 278 287 293 301 315 325 327 324 318 317 319 322 324 323 321 319 319 317 312 308 308 309 313 319 321 322 324 327 327 328 330 331 328 324 317 310 304 296 289 282 277 272 267 265 264 263 264 266 268 271 274
268 310 64 144 237 331 338 252 264 51 58 75 122 136 341 348 343 345 4 315 295 303 307 317 326 279 211 194 192 194 197 206 227 252 276 288 291 294 303 316 325 330 328 322 317 315 316 320 323 322 319 317 318 317 314 310 307 307 312 315 317 320 324 324 323 322 323 324 323 319 313 307 300 296 291 286 282 277 270 266 265 263 261 261 261 262
221 305 318 122 169 256 345 50 351 352 47 71 159 68 61 95 329 300 107 3 306 300 304 309 302 294 149 155 211 209 197 206 236 278 284 288 295 301 308 315 320 325 327 324 320 317 315 316 318 319 319 316 314 314 315 312 308 305 306 309 311 314 319 320 319 319 317 317 319 318 314 308 301 298 296 294 291 289 283 275 271 268 265 265 263 261
245 226 302 302 260 185 91 64 357 326 324 313 313 27 34 357 308 293 356 45 358 298 275 308 295 293 347 41 267 292 8 310 300 293 281 291 304 310 313 316 319 322 323 320 319 319 318 317 317 317 317 315 312 310 309 308 308 305 302 301 303 307 313 315 313 315 315 314 313 313 312 309 305 299 296 295 294 294 293 286 279 273 269 268 267 265
274 242 278 285 306 72 81 81 78 352 254 248 278 301 71 160 228 304 327 44 145 245 55 51 278 278 14 59 294 305 308 294 295 288 279 293 308 313 316 320 323 325 322 315 314 317 319 319 320 318 316 315 313 310 307 303 303 303 302 298 296 299 307 310 309 308 310 311 311 309 307 307 306 303 298 295 294 293 293 291 284 278 274 273 270 268
179 42 285 277 267 105 107 119 113 38 242 219 231 193 193 199 59 352 354 15 245 198 163 179 250 256 23 50 293 293 300 299 298 295 293 300 308 314 320 325 329 328 322 313 309 310 315 318 320 320 318 315 313 312 310 305 301 299 300 299 296 296 300 304 306 306 306 306 307 306 306 304 303 302 300 298 294 291 289 288 285 281 280 279 277 274
199 38 313 300 324 92 135 143 168 353 258 243 239 170 183 113 95 98 106 102 264 213 178 230 261 255 133 116 241 264 304 303 295 296 300 303 309 316 322 328 331 330 326 319 311 308 312 317 318 318 317 316 314 313 311 309 305 299 297 297 296 295 297 298 300 304 306 305 304 302 302 302 301 299 298 296 294 290 287 285 284 283 283 283 283 282
233 341 272 307 339 324 319 340 324 315 259 216 192 176 188 160 154 172 133 177 245 198 172 219 255 282 269 218 228 239 270 291 292 296 301 305 311 317 321 326 330 331 332 329 322 316 314 315 316 317 317 315 313 312 311 310 308 303 298 295 294 293 294 294 295 297 301 303 304 302 298 297 297 298 296 292 289 289 287 284 283 282 283 283 283 282
99 264 227 241 265 274 297 323 52 301 280 253 209 186 188 189 192 188 164 218 210 159 212 234 249 280 285 279 281 288 283 282 291 299 303 306 311 314 316 320 323 327 331 331 328 324 318 314 316 318 316 314 313 312 311 310 308 306 302 297 294 291 289 290 291 291 293 296 299 302 301 298 294 294 294 291 287 285 284 285 284 282 281 281 280 280
168 253 212 218 245 258 283 293 236 230 264 264 255 214 188 187 191 193 211 209 140 159 259 244 221 253 275 286 298 301 300 298 300 301 299 300 306 308 309 313 316 321 327 330 330 328 320 314 316 317 315 314 314 314 313 312 310 307 305 301 297 292 289 288 287 287 289 291 293 297 301 302 296 290 289 290 289 286 284 284 283 282 281 278 278 278
261 266 179 181 254 263 268 271 263 249 256 258 257 245 213 192 188 201 223 209 169 225 256 261 247 261 275 287 291 291 295 300 300 299 297 296 302 306 307 309 312 318 324 327 328 326 319 314 314 315 315 314 314 315 314 314 313 309 305 303 300 296 294 290 287 286 286 287 289 293 298 300 298 292 289 287 288 288 286 283 281 280 279 278 278 278
220 257 172 200 275 273 258 254 250 246 259 260 244 235 226 214 204 211 230 221 208 241 257 269 280 282 280 278 276 280 289 294 294 295 297 300 304 308 308 308 311 316 320 321 320 319 316 315 313 313 314 312 311 313 313 313 313 310 307 305 303 301 298 294 290 289 287 287 289 293 294 296 296 294 290 287 286 286 286 284 282 279 278 278 277 276
212 283 51 97 288 282 226 183 221 232 252 265 258 236 216 219 219 222 236 231 225 246 259 266 277 280 273 269 269 277 286 290 291 293 299 304 308 309 307 308 311 313 316 315 315 314 313 313 314 313 313 313 312 310 310 310 309 308 308 308 306 303 299 295 292 292 291 291 292 293 292 293 295 294 292 289 286 284 284 283 282 279 278 277 277 276
202 252 77 38 301 283 114 77 284 270 262 261 270 254 208 202 214 220 223 213 212 228 243 259 265 259 262 271 280 282 279 277 281 289 298 305 309 308 303 305 309 309 311 312 313 314 314 313 315 315 314 314 314 311 309 308 306 305 307 307 305 301 297 294 293 293 293 292 292 292 291 292 293 293 293 291 288 285 284 282 280 278 277 276 275 276
196 215 145 64 289 271 50 348 312 303 290 255 267 239 185 187 212 231 229 214 208 213 215 226 237 247 271 287 291 283 273 267 276 285 294 298 302 304 303 303 306 306 307 310 312 314 315 316 316 315 315 315 314 312 310 307 304 303 304 303 301 298 295 293 292 292 292 293 292 291 291 291 291 292 293 294 292 287 283 280 278 278 277 276 275 273
185 203 153 150 260 282 338 328 306 298 304 51 126 162 160 178 206 222 238 222 201 204 224 246 259 274 281 276 269 272 276 279 283 287 292 294 295 298 302 304 305 306 307 310 313 315 316 317 317 316 315 314 314 312 309 306 304 303 301 298 296 295 293 292 291 290 291 292 293 292 291 291 290 291 292 293 293 289 284 279 278 277 277 276 275 273
173 174 138 159 249 285 329 328 310 286 202 124 168 190 166 181 205 228 257 247 208 210 231 251 263 264 264 265 270 277 282 283 284 286 291 297 296 296 299 302 305 307 307 308 311 314 316 316 316 315 314 314 313 311 308 306 306 304 300 296 293 291 291 291 290 290 290 290 293 294 293 292 290 290 291 291 292 290 285 281 278 277 276 275 275 274
167 156 140 158 229 271 318 353 307 308 311 318 143 167 150 135 183 236 271 258 209 204 218 236 250 255 262 269 274 280 286 288 286 286 292 300 302 299 298 299 302 303 303 304 306 310 314 314 313 313 313 313 311 309 308 308 307 304 298 294 292 290 289 290 289 290 291 290 292 293 294 293 291 289 289 289 288 287 285 282 280 278 277 276 274 273
162 145 195 212 205 254 288 220 253 300 316 335 124 159 174 169 158 138 298 277 241 213 212 221 242 252 260 269 274 279 289 295 289 283 296 309 310 307 303 300 300 301 301 305 307 309 312 313 312 311 310 309 309 309 309 309 306 302 297 294 292 291 289 287 287 289 291 292 292 292 291 290 288 286 285 284 284 285 285 284 282 280 279 277 275 274
27 32 243 246 231 215 278 280 282 296 301 158 169 219 206 172 133 98 4 288 277 229 214 213 227 246 254 267 276 279 293 304 293 278 332 329 320 314 310 305 304 303 304 308 311 312 312 311 310 309 309 309 309 310 311 308 303 299 296 293 293 292 289 287 287 288 289 290 290 290 289 287 285 285 284 283 283 284 285 285 283 281 280 278 277 275
33 22 14 262 247 188 223 264 260 265 265 191 157 196 190 166 146 119 293 281 264 210 210 210 222 240 249 264 276 282 299 303 292 302 321 321 316 312 310 309 309 309 310 311 313 313 313 312 310 309 310 310 311 312 310 306 301 297 294 293 293 291 289 289 290 292 290 288 287 286 286 286 285 284 283 283 284 284 285 284 283 281 279 278 277 276
45 37 196 221 226 206 198 210 232 257 257 214 175 184 171 156 156 218 310 285 194 210 218 213 225 242 254 267 275 276 265 273 286 301 307 310 312 312 311 312 312 313 313 314 315 315 314 313 313 311 310 311 313 313 310 306 301 296 294 294 293 290 291 293 295 294 291 289 287 285 284 284 284 283 282 283 284 284 283 282 281 280 278 278 278 277
149 223 204 225 243 217 213 235 274 271 252 208 189 178 157 138 149 243 281 296 235 252 257 241 247 262 272 276 273 266 273 285 292 299 304 308 311 313 314 314 313 312 313 314 316 317 316 314 313 310 309 311 314 312 310 307 302 298 298 297 295 294 297 299 296 293 290 288 287 285 283 283 283 282 282 282 283 283 282 281 279 278 278 277 277 276
178 162 163 202 236 205 221 257 275 275 266 204 176 172 162 148 215 211 230 294 296 292 290 282 280 284 284 283 281 279 285 293 297 300 304 308 310 312 314 314 313 313 314 315 316 317 317 315 311 308 308 311 314 313 312 309 304 302 301 299 299 302 303 299 294 292 290 289 288 286 284 283 282 282 282 282 282 282 281 280 279 277 276 276 275 275
168 170 186 192 182 147 262 253 245 288 240 155 144 144 167 200 255 269 282 296 295 295 296 291 288 290 289 287 288 289 291 295 297 300 304 307 308 310 312 312 313 313 313 314 315 317 316 313 309 308 308 311 314 315 314 310 306 304 303 303 306 309 304 298 295 293 291 290 289 288 286 285 284 283 283 283 283 282 281 280 279 277 276 274 274 274
173 188 193 189 190 165 170 202 214 294 176 166 165 193 223 234 263 279 283 287 289 290 291 288 288 292 292 288 290 292 293 294 297 301 303 305 307 309 310 311 312 311 311 312 312 313 313 309 307 307 308 312 316 317 315 312 309 306 305 309 313 310 304 301 298 294 291 291 290 289 288 287 285 285 284 284 284 282 281 281 279 277 275 274 272 272
194 192 185 209 199 194 230 234 238 300 201 188 206 251 260 260 272 277 275 278 283 287 288 287 289 294 295 291 290 291 292 294 298 301 302 303 305 307 308 308 308 307 307 308 308 310 310 307 306 306 308 312 317 318 316 314 310 308 310 316 317 311 307 305 300 295 294 293 291 290 290 288 287 287 286 286 285 283 282 282 279 276 274 272 270 270
207 200 197 25 187 236 264 257 251 262 259 244 244 260 269 273 276 275 274 276 281 287 291 289 290 295 297 294 290 289 293 296 298 299 300 301 303 304 305 305 304 304 303 303 304 306 306 304 304 305 306 310 315 316 315 313 312 312 315 319 317 312 310 306 301 297 296 294 293 291 289 288 287 288 288 287 286 284 283 282 279 274 272 270 268 268
221 210 210 213 132 241 265 244 232 249 260 259 258 262 268 272 274 274 275 278 284 290 293 292 294 296 296 295 292 291 295 298 297 297 299 300 301 302 303 303 302 301 300 299 299 303 303 301 300 302 304 306 310 312 312 315 318 319 320 320 316 311 309 305 302 299 297 294 293 290 288 287 287 287 288 287 285 284 283 281 278 274 271 269 267 267
202 204 209 215 211 226 259 260 254 261 268 269 268 267 268 273 276 278 279 283 287 290 291 293 296 295 294 295 295 293 295 297 297 297 299 300 300 300 300 300 301 300 298 297 297 299 300 298 297 300 301 302 305 309 311 319 325 327 327 325 321 314 308 305 302 299 297 295 293 290 287 286 286 286 287 286 284 283 282 279 276 273 270 270 269 268
160 185 190 189 215 242 268 269 265 267 272 271 271 272 274 278 281 282 283 284 285 288 290 293 296 296 295 296 296 295 294 296 298 299 299 299 299 299 299 300 301 300 299 298 297 296 295 293 294 298 298 298 302 306 311 319 324 326 328 329 325 318 311 307 303 300 298 296 294 291 289 286 285 285 285 284 283 282 280 277 274 272 272 270 268 266
181 204 179 170 217 243 252 252 243 238 264 271 276 282 286 288 288 286 285 285 286 288 291 293 294 296 297 296 298 297 295 297 301 301 299 298 299 300 300 301 301 300 300 300 298 295 292 291 294 297 297 296 299 304 309 316 319 321 326 328 326 321 315 310 306 303 301 300 297 294 290 287 285 285 284 283 283 282 279 276 273 272 271 268 264 263
215 226 206 197 211 237 252 255 246 238 258 269 278 285 287 290 290 287 285 286 287 290 292 292 292 296 297 298 299 298 296 298 302 302 299 299 300 301 301 301 301 301 300 299 297 294 292 292 294 296 296 296 298 303 308 312 315 318 322 323 323 321 317 313 309 306 305 304 300 297 293 289 287 286 284 283 283 282 279 277 273 270 268 266 262 262
Height
1597 1600 1611 1618 1621 1622 1623 1622 1621 1622 1621 1620 1620 1619 1620 1616 1610 1613 1615 1616 1618 1611 1607 1610 1607 1604 1603 1601 1601 1601 1599 1599 1597 1597 1596 1595 1594 1593 1592 1590 1588 1587 1585 1583 1582 1580 1578 1576 1574 1572 1571 1570 1567 1565 1563 1560 1558 1555 1553 1551 1549 1546 1544 1541 1537 1534 1531 1528 1525 1523 1519 1515 1512 1509 1506 1503 1501 1500 1499 1499 1500 1501 1502 1502 1503 1504
1599 1606 1622 1628 1627 1626 1625 1626 1625 1623 1623 1620 1619 1618 1617 1615 1611 1613 1616 1616 1617 1611 1605 1608 1606 1601 1601 1601 1601 1601 1599 1598 1597 1596 1595 1594 1593 1592 1591 1590 1588 1586 1585 1583 1582 1580 1578 1576 1574 1572 1570 1569 1568 1566 1563 1561 1559 1556 1554 1552 1549 1547 1544 1542 1539 1536 1532 1529 1527 1524 1522 1519 1516 1513 1509 1506 1504 1504 1503 1503 1502 1504 1504 1505 1506 1507
1602 1615 1628 1629 1628 1628 1626 1626 1625 1623 1623 1618 1617 1616 1612 1614 1614 1612 1616 1617 1616 1611 1605 1608 1607 1599 1599 1600 1599 1600 1599 1597 1597 1596 1595 1593 1593 1592 1590 1589 1587 1586 1584 1583 1582 1580 1578 1576 1574 1572 1570 1569 1568 1566 1564 1562 1559 1557 1555 1553 1551 1549 1546 1543 1541 1538 1535 1532 1530 1527 1525 1522 1520 1517 1514 1510 1508 1508 1508 1507 1506 1507 1507 1508 1508 1508
1609 1622 1629 1629 1629 1628 1626 1626 1625 1622 1620 1619 1618 1615 1612 1617 1617 1609 1612 1617 1616 1614 1611 1612 1609 1599 1598 1599 1598 1598 1598 1597 1596 1594 1594 1593 1592 1591 1590 1588 1586 1585 1583 1582 1581 1579 1577 1576 1574 1572 1570 1569 1567 1566 1564 1562 1560 1558 1556 1554 1552 1550 1547 1544 1542 1540 1538 1535 1532 1530 1528 1525 1523 1521 1519 1516 1513 1513 1512 1510 1509 1510 1510 1509 1509 1509
1622 1629 1629 1629 1629 1628 1626 1625 1625 1620 1616 1622 1624 1619 1617 1622 1623 1616 1616 1617 1615 1615 1616 1613 1604 1596 1596 1596 1596 1597 1596 1596 1595 1594 1593 1592 1591 1590 1589 1587 1586 1584 1583 1581 1580 1578 1577 1575 1573 1572 1570 1569 1567 1566 1564 1562 1560 1559 1557 1555 1553 1551 1549 1546 1544 1542 1540 1538 1535 1533 1531 1528 1526 1525 1522 1519 1517 1516 1514 1513 1512 1512 1511 1511 1510 1510
1626 1630 1628 1628 1627 1627 1626 1625 1629 1624 1615 1619 1624 1625 1624 1626 1626 1622 1620 1617 1607 1605 1615 1614 1595 1586 1595 1597 1594 1595 1595 1594 1593 1593 1592 1592 1591 1590 1588 1587 1586 1584 1582 1581 1579 1577 1576 1574 1573 1571 1570 1569 1567 1566 1564 1563 1561 1559 1557 1556 1554 1552 1550 1548 1546 1544 1542 1540 1538 1535 1533 1531 1529 1527 1524 1521 1520 1518 1516 1515 1515 1514 1513 1513 1512 1512
1628 1630 1628 1628 1627 1626 1625 1624 1629 1629 1617 1613 1622 1628 1628 1627 1626 1622 1621 1614 1601 1601 1616 1618 1600 1587 1591 1593 1592 1594 1594 1592 1592 1592 1591 1591 1590 1589 1588 1587 1585 1584 1582 1580 1579 1577 1575 1574 1572 1571 1569 1568 1567 1566 1564 1563 1561 1559 1558 1556 1555 1553 1552 1550 1548 1545 1544 1542 1540 1537 1535 1533 1530 1528 1526 1524 1523 1521 1520 1519 1518 1517 1516 1516 1515 1515
1630 1629 1628 1628 1627 1624 1623 1623 1627 1630 1620 1614 1625 1630 1626 1626 1624 1623 1621 1612 1610 1614 1614 1616 1612 1598 1587 1587 1592 1594 1593 1590 1589 1590 1590 1590 1590 1589 1588 1586 1584 1583 1581 1580 1578 1577 1575 1573 1572 1570 1569 1568 1567 1565 1564 1563 1561 1560 1558 1556 1555 1554 1552 1551 1549 1547 1545 1543 1542 1539 1537 1535 1533 1531 1529 1527 1526 1524 1523 1522 1521 1520 1519 1518 1518 1518
1632 1629 1630 1629 1626 1623 1625 1627 1628 1629 1623 1620 1629 1628 1626 1627 1624 1625 1621 1613 1620 1617 1601 1609 1618 1599 1581 1585 1592 1594 1592 1589 1587 1588 1588 1589 1589 1588 1587 1586 1584 1583 1581 1580 1578 1577 1575 1573 1571 1570 1569 1568 1566 1566 1564 1563 1561 1559 1558 1556 1555 1554 1552 1552 1550 1548 1546 1544 1543 1541 1539 1538 1536 1534 1532 1530 1529 1527 1526 1525 1523 1523 1522 1521 1520 1520
1633 1631 1632 1630 1628 1628 1628 1630 1629 1628 1625 1625 1629 1627 1627 1627 1625 1626 1617 1610 1619 1609 1596 1611 1619 1599 1582 1582 1588 1591 1591 1588 1586 1586 1587 1588 1588 1588 1587 1585 1584 1583 1581 1580 1578 1576 1575 1573 1572 1570 1568 1567 1566 1565 1564 1563 1561 1559 1558 1556 1555 1554 1552 1551 1550 1549 1547 1545 1544 1542 1541 1539 1537 1536 1534 1533 1532 1530 1529 1528 1526 1525 1524 1524 1523 1522
1633 1633 1633 1632 1632 1631 1630 1629 1629 1629 1627 1627 1628 1625 1624 1622 1622 1623 1616 1614 1609 1595 1601 1619 1620 1609 1592 1580 1582 1586 1587 1587 1586 1587 1587 1588 1588 1587 1586 1585 1583 1582 1581 1580 1578 1576 1575 1573 1571 1569 1568 1567 1566 1565 1564 1562 1561 1560 1558 1556 1555 1553 1552 1551 1550 1549 1548 1546 1544 1543 1542 1540 1539 1537 1536 1535 1534 1533 1532 1530 1529 1528 1527 1526 1525 1525
1633 1631 1632 1633 1632 1632 1630 1628 1628 1628 1628 1627 1624 1621 1615 1611 1613 1611 1608 1612 1596 1584 1607 1624 1621 1619 1599 1579 1580 1583 1585 1588 1587 1587 1586 1586 1587 1586 1585 1584 1583 1582 1581 1580 1578 1576 1574 1572 1571 1569 1568 1567 1565 1564 1563 1562 1561 1559 1558 1556 1555 1553 1551 1550 1549 1548 1547 1547 1545 1544 1542 1541 1540 1538 1537 1536 1535 1534 1533 1532 1531 1530 1529 1528 1527 1527
1630 1632 1633 1632 1632 1632 1628 1624 1624 1624 1625 1622 1620 1617 1603 1594 1598 1596 1595 1603 1592 1590 1616 1626 1621 1616 1595 1578 1581 1583 1585 1588 1587 1588 1587 1587 1587 1586 1585 1584 1582 1582 1580 1579 1578 1576 1574 1572 1570 1569 1567 1566 1565 1564 1562 1561 1560 1559 1557 1556 1554 1553 1551 1550 1548 1547 1546 1546 1545 1544 1543 1541 1540 1539 1538 1537 1536 1534 1534 1533 1532 1531 1530 1530 1529 1528
1624 1629 1633 1631 1631 1633 1629 1625 1621 1621 1623 1620 1622 1619 1601 1595 1600 1598 1600 1606 1598 1599 1619 1629 1622 1604 1583 1577 1582 1584 1585 1588 1588 1588 1588 1587 1587 1585 1584 1583 1582 1581 1580 1578 1577 1575 1574 1572 1570 1568 1567 1565 1564 1563 1562 1560 1559 1558 1556 1555 1554 1552 1551 1549 1548 1547 1546 1545 1544 1544 1543 1542 1541 1539 1538 1537 1536 1535 1534 1533 1532 1532 1531 1530 1530 1529
1623 1621 1630 1632 1632 1634 1634 1633 1630 1629 1627 1625 1630 1624 1611 1613 1614 1606 1606 1605 1603 1608 1617 1624 1618 1593 1579 1581 1584 1586 1587 1587 1588 1588 1587 1587 1586 1585 1584 1583 1582 1580 1579 1577 1576 1575 1573 1572 1570 1568 1566 1565 1564 1562 1561 1559 1558 1557 1556 1554 1553 1552 1550 1549 1548 1546 1545 1544 1543 1543 1542 1541 1541 1540 1538 1537 1537 1536 1535 1534 1533 1532 1531 1530 1530 1529
1630 1625 1634 1637 1636 1637 1636 1636 1637 1634 1628 1627 1630 1624 1620 1629 1628 1626 1633 1634 1634 1631 1617 1612 1605 1587 1583 1585 1586 1588 1587 1587 1587 1586 1587 1586 1585 1585 1583 1582 1581 1579 1579 1577 1575 1574 1572 1571 1569 1567 1566 1564 1563 1562 1560 1559 1557 1556 1555 1553 1552 1551 1549 1548 1547 1546 1544 1543 1543 1542 1541 1540 1540 1539 1539 1538 1537 1536 1535 1534 1533 1532 1531 1530 1530 1529
1632 1629 1636 1638 1637 1639 1637 1637 1638 1634 1628 1625 1625 1625 1632 1640 1635 1633 1644 1654 1654 1633 1609 1604 1597 1585 1583 1583 1585 1588 1586 1585 1586 1584 1585 1585 1584 1584 1582 1581 1580 1578 1577 1575 1574 1572 1571 1570 1568 1567 1565 1564 1562 1561 1560 1558 1557 1555 1554 1552 1551 1550 1548 1547 1546 1545 1544 1542 1542 1540 1540 1539 1539 1538 1538 1537 1537 1536 1535 1534 1533 1532 1531 1531 1530 1529
1639 1630 1633 1639 1636 1637 1639 1637 1638 1637 1633 1626 1625 1632 1639 1640 1637 1631 1628 1632 1629 1611 1600 1604 1601 1592 1586 1580 1582 1586 1584 1583 1584 1583 1584 1583 1582 1583 1581 1580 1579 1577 1576 1574 1572 1571 1569 1568 1567 1565 1564 1562 1561 1560 1558 1557 1556 1554 1553 1551 1550 1549 1547 1546 1545 1544 1543 1541 1541 1539 1539 1538 1537 1537 1536 1536 1535 1535 1534 1534 1533 1532 1531 1531 1530 1529
1647 1631 1629 1639 1637 1636 1640 1637 1634 1636 1637 1632 1631 1638 1638 1630 1629 1629 1624 1621 1617 1611 1605 1603 1602 1597 1587 1579 1578 1581 1582 1581 1581 1582 1582 1581 1581 1581 1580 1579 1577 1576 1574 1572 1571 1569 1568 1567 1565 1564 1563 1561 1560 1558 1557 1556 1554 1553 1552 1550 1549 1548 1546 1545 1544 1543 1542 1540 1539 1538 1537 1537 1536 1535 1534 1534 1534 1533 1533 1532 1532 1531 1531 1530 1529 1529
1649 1635 1626 1635 1640 1637 1636 1634 1632 1633 1637 1637 1636 1638 1639 1635 1633 1633 1634 1631 1623 1619 1615 1607 1598 1586 1578 1578 1578 1577 1580 1580 1580 1581 1580 1580 1580 1579 1578 1577 1576 1574 1572 1570 1569 1567 1566 1565 1563 1562 1561 1559 1558 1557 1555 1554 1553 1552 1550 1549 1548 1546 1545 1544 1542 1541 1540 1539 1538 1537 1536 1535 1534 1533 1533 1532 1531 1531 1531 1530 1530 1529 1529 1529 1528 1528
1649 1641 1629 1631 1637 1635 1633 1636 1638 1636 1637 1636 1633 1634 1635 1640 1645 1641 1642 1647 1637 1624 1626 1626 1606 1579 1573 1580 1578 1577 1580 1579 1580 1581 1580 1580 1579 1578 1577 1576 1574 1572 1570 1569 1567 1565 1564 1562 1561 1560 1559 1558 1556 1555 1554 1552 1551 1550 1549 1547 1546 1545 1544 1542 1541 1539 1538 1537 1536 1535 1535 1534 1533 1532 1531 1530 1529 1529 1528 1528 1528 1527 1527 1527 1526 1526
1647 1644 1637 1630 1628 1629 1635 1644 1646 1643 1643 1638 1634 1634 1632 1636 1639 1631 1634 1654 1656 1641 1637 1640 1620 1587 1577 1583 1580 1579 1582 1581 1582 1581 1580 1580 1578 1577 1576 1573 1572 1570 1568 1567 1565 1563 1562 1560 1559 1558 1557 1556 1554 1553 1552 1550 1549 1548 1547 1546 1544 1543 1542 1541 1539 1538 1537 1536 1534 1534 1533 1532 1531 1530 1530 1529 1528 1527 1527 1526 1525 1525 1524 1524 1524 1524
1648 1646 1642 1631 1627 1633 1641 1646 1646 1644 1646 1645 1640 1639 1636 1637 1636 1627 1627 1642 1654 1655 1652 1652 1638 1600 1579 1584 1584 1582 1583 1582 1582 1581 1580 1579 1577 1576 1574 1571 1570 1568 1566 1565 1563 1562 1561 1559 1558 1556 1554 1554 1552 1551 1550 1548 1547 1546 1544 1544 1542 1541 1540 1539 1538 1536 1535 1534 1533 1532 1531 1530 1530 1529 1528 1528 1527 1526 1525 1524 1524 1523 1522 1522 1521 1521
1648 1647 1642 1629 1626 1638 1645 1647 1648 1647 1647 1643 1640 1641 1640 1637 1636 1635 1637 1638 1644 1650 1648 1647 1634 1597 1577 1584 1585 1582 1584 1582 1581 1581 1579 1578 1576 1574 1572 1569 1567 1566 1564 1563 1561 1561 1560 1557 1556 1555 1553 1552 1550 1548 1547 1545 1545 1543 1542 1541 1540 1539 1538 1536 1536 1534 1533 1532 1531 1530 1529 1528 1527 1526 1526 1526 1525 1525 1524 1523 1522 1521 1520 1520 1519 1519
1645 1644 1641 1629 1622 1629 1634 1636 1639 1642 1644 1639 1635 1640 1640 1641 1643 1643 1646 1645 1639 1637 1637 1632 1613 1584 1576 1585 1582 1580 1583 1580 1580 1580 1578 1576 1574 1571 1569 1567 1566 1564 1562 1561 1560 1559 1558 1556 1555 1553 1551 1549 1547 1546 1545 1543 1542 1541 1539 1539 1537 1536 1535 1534 1533 1532 1531 1530 1529 1528 1527 1526 1524 1523 1522 1522 1521 1521 1521 1521 1521 1520 1519 1518 1517 1517
1645 1645 1642 1632 1626 1626 1623 1625 1627 1629 1635 1636 1636 1641 1640 1641 1643 1638 1640 1642 1633 1634 1640 1627 1599 1578 1575 1580 1578 1578 1580 1578 1578 1577 1576 1575 1572 1569 1568 1566 1564 1563 1561 1560 1559 1557 1556 1555 1553 1551 1549 1547 1545 1544 1542 1541 1539 1538 1536 1536 1535 1533 1532 1531 1530 1529 1528 1527 1526 1525 1524 1523 1522 1521 1519 1518 1517 1517 1517 1517 1517 1517 1517 1516 1515 1514
1648 1649 1644 1636 1631 1626 1621 1624 1630 1630 1630 1629 1631 1638 1639 1639 1639 1635 1638 1636 1627 1633 1634 1613 1596 1589 1580 1576 1576 1576 1576 1576 1576 1574 1573 1572 1569 1568 1567 1564 1563 1562 1560 1559 1557 1555 1554 1552 1551 1549 1547 1545 1543 1541 1540 1538 1537 1535 1534 1533 1532 1531 1529 1529 1527 1526 1525 1524 1522 1522 1521 1520 1519 1518 1517 1515 1514 1513 1512 1512 1512 1512 1513 1513 1512 1511
1648 1644 1643 1642 1635 1628 1625 1628 1632 1633 1629 1624 1625 1629 1633 1636 1638 1637 1634 1626 1624 1629 1617 1598 1601 1601 1586 1577 1577 1575 1574 1574 1573 1572 1571 1569 1567 1566 1565 1563 1562 1560 1558 1557 1555 1553 1551 1549 1547 1546 1544 1542 1541 1538 1537 1536 1534 1533 1531 1529 1529 1528 1526 1525 1524 1523 1522 1521 1519 1518 1518 1517 1516 1515 1514 1513 1512 1511 1509 1508 1507 1507 1508 1508 1508 1508
1647 1641 1642 1646 1638 1632 1632 1631 1630 1631 1628 1624 1625 1626 1628 1631 1634 1632 1627 1622 1623 1621 1604 1595 1602 1600 1587 1581 1578 1574 1574 1574 1572 1570 1568 1566 1565 1563 1562 1560 1559 1557 1556 1554 1552 1551 1548 1546 1544 1542 1541 1539 1538 1536 1534 1533 1531 1530 1528 1527 1526 1525 1524 1522 1521 1520 1518 1517 1516 1516 1515 1514 1513 1512 1511 1510 1509 1508 1507 1506 1504 1503 1503 1502 1503 1503
1647 1642 1644 1648 1641 1632 1630 1630 1630 1630 1626 1623 1623 1623 1623 1625 1626 1625 1620 1619 1620 1614 1603 1600 1603 1597 1587 1580 1576 1573 1573 1572 1570 1567 1565 1563 1562 1560 1558 1557 1555 1554 1553 1551 1549 1548 1545 1543 1541 1539 1538 1536 1534 1533 1531 1529 1528 1526 1525 1524 1522 1521 1521 1519 1517 1516 1515 1515 1514 1513 1512 1511 1509 1509 1507 1506 1506 1505 1504 1503 1502 1500 1499 1498 1498 1498
1646 1642 1645 1649 1639 1625 1625 1630 1630 1627 1625 1621 1618 1618 1620 1621 1622 1622 1619 1617 1618 1614 1606 1606 1608 1600 1584 1574 1573 1572 1571 1570 1568 1565 1562 1561 1559 1558 1555 1554 1552 1551 1550 1548 1547 1545 1542 1541 1539 1537 1535 1534 1532 1530 1528 1526 1525 1523 1521 1521 1519 1519 1518 1516 1514 1513 1512 1512 1511 1510 1509 1507 1506 1505 1504 1503 1502 1501 1500 1500 1498 1497 1496 1494 1494 1493
1646 1644 1645 1647 1634 1619 1623 1630 1626 1623 1623 1619 1612 1609 1613 1617 1616 1614 1612 1611 1611 1609 1607 1609 1608 1593 1576 1569 1570 1569 1567 1568 1565 1562 1561 1559 1557 1556 1553 1551 1550 1548 1547 1546 1544 1542 1540 1538 1537 1535 1533 1531 1530 1528 1526 1524 1522 1520 1519 1517 1516 1515 1514 1512 1511 1510 1509 1509 1508 1507 1506 1504 1503 1502 1500 1500 1498 1497 1496 1495 1494 1494 1493 1491 1490 1489
1646 1642 1642 1645 1632 1618 1622 1627 1624 1619 1609 1599 1596 1596 1602 1609 1609 1607 1606 1604 1602 1601 1601 1600 1590 1576 1569 1569 1569 1565 1563 1564 1561 1559 1559 1557 1554 1553 1550 1549 1547 1545 1544 1543 1541 1540 1538 1536 1534 1533 1530 1529 1527 1525 1523 1522 1519 1517 1516 1514 1512 1511 1510 1508 1507 1506 1504 1504 1503 1503 1502 1501 1500 1498 1497 1496 1495 1493 1492 1490 1489 1489 1489 1488 1487 1486
1645 1640 1641 1645 1634 1622 1623 1625 1622 1610 1591 1584 1590 1593 1595 1599 1600 1599 1596 1593 1594 1594 1590 1584 1577 1571 1569 1568 1565 1562 1559 1558 1558 1557 1556 1555 1552 1550 1549 1547 1545 1544 1542 1541 1539 1537 1535 1533 1531 1529 1527 1526 1524 1522 1520 1519 1516 1515 1513 1511 1509 1507 1505 1504 1503 1501 1500 1498 1497 1497 1497 1497 1496 1494 1493 1492 1491 1489 1488 1486 1485 1485 1484 1484 1483 1482
1643 1641 1645 1648 1640 1630 1627 1622 1609 1593 1582 1586 1594 1594 1592 1593 1594 1593 1588 1583 1587 1588 1584 1580 1576 1570 1567 1565 1563 1560 1555 1554 1555 1554 1553 1552 1550 1548 1547 1545 1543 1542 1540 1538 1536 1534 1531 1530 1527 1525 1523 1521 1520 1519 1517 1515 1513 1511 1509 1507 1505 1503 1501 1500 1498 1497 1495 1493 1492 1492 1491 1491 1490 1489 1488 1487 1486 1485 1483 1481 1480 1480 1479 1479 1479 1478
1640 1641 1643 1647 1642 1632 1627 1622 1606 1588 1582 1588 1592 1592 1593 1593 1593 1592 1584 1576 1577 1581 1580 1578 1573 1567 1564 1562 1560 1557 1553 1551 1550 1550 1550 1550 1548 1547 1545 1542 1541 1539 1537 1536 1534 1531 1528 1526 1523 1521 1519 1517 1516 1515 1513 1511 1510 1507 1504 1503 1501 1499 1498 1496 1494 1493 1491 1490 1488 1487 1486 1485 1484 1483 1482 1482 1481 1479 1478 1476 1476 1475 1475 1474 1474 1473
1640 1641 1640 1640 1638 1634 1630 1626 1614 1597 1587 1584 1585 1587 1588 1587 1587 1587 1582 1572 1568 1571 1574 1572 1569 1565 1562 1559 1557 1555 1553 1549 1544 1544 1546 1546 1546 1545 1542 1540 1538 1536 1534 1533 1531 1528 1525 1522 1520 1518 1516 1514 1512 1511 1510 1508 1505 1502 1500 1498 1497 1496 1494 1492 1490 1489 1488 1486 1484 1482 1481 1479 1477 1476 1476 1475 1475 1473 1473 1472 1470 1470 1470 1468 1468 1468
1641 1641 1638 1634 1635 1638 1635 1625 1614 1599 1583 1576 1579 1582 1582 1583 1583 1586 1585 1575 1562 1561 1565 1565 1564 1562 1558 1556 1554 1554 1554 1549 1540 1538 1541 1542 1541 1541 1539 1537 1535 1533 1532 1530 1528 1525 1522 1519 1517 1514 1512 1510 1509 1507 1506 1504 1501 1498 1495 1494 1492 1491 1489 1487 1486 1485 1484 1482 1480 1478 1476 1474 1472 1470 1469 1469 1469 1468 1467 1466 1465 1464 1464 1463 1462 1462
1643 1643 1641 1637 1637 1639 1634 1623 1615 1600 1580 1574 1579 1580 1581 1583 1582 1585 1584 1571 1557 1555 1558 1559 1558 1557 1556 1555 1553 1553 1555 1550 1539 1535 1539 1539 1538 1537 1536 1533 1532 1530 1529 1527 1525 1522 1518 1515 1513 1510 1508 1507 1505 1503 1502 1499 1496 1494 1491 1489 1488 1485 1483 1482 1481 1481 1479 1477 1475 1473 1471 1469 1468 1465 1464 1463 1462 1462 1462 1461 1460 1459 1458 1457 1457 1457
1642 1641 1642 1639 1635 1637 1634 1625 1617 1601 1581 1576 1579 1579 1580 1582 1582 1584 1578 1562 1553 1554 1555 1554 1555 1555 1554 1554 1553 1552 1553 1548 1538 1534 1536 1536 1535 1533 1532 1530 1528 1526 1524 1522 1521 1518 1515 1512 1509 1506 1504 1503 1501 1499 1497 1494 1492 1489 1486 1485 1483 1480 1478 1477 1476 1475 1473 1471 1469 1468 1466 1465 1463 1461 1460 1458 1457 1457 1457 1456 1455 1454 1453 1452 1452 1451
1645 1644 1643 1641 1635 1636 1633 1625 1616 1599 1578 1572 1576 1577 1578 1581 1583 1580 1568 1553 1550 1552 1552 1552 1553 1552 1552 1552 1551 1548 1546 1543 1538 1534 1533 1533 1531 1528 1527 1526 1523 1521 1519 1517 1516 1514 1511 1508 1505 1502 1499 1498 1497 1495 1493 1490 1487 1484 1483 1481 1478 1476 1475 1474 1471 1469 1467 1465 1464 1462 1461 1460 1459 1457 1456 1454 1453 1452 1452 1451 1451 1450 1449 1448 1447 1446
1638 1640 1643 1644 1638 1633 1633 1630 1621 1597 1571 1565 1572 1576 1578 1579 1574 1564 1553 1547 1549 1550 1549 1549 1549 1548 1549 1548 1546 1543 1539 1537 1535 1532 1530 1529 1527 1524 1522 1520 1518 1516 1514 1512 1510 1509 1507 1503 1500 1497 1494 1493 1492 1490 1488 1486 1482 1480 1479 1477 1474 1473 1471 1469 1466 1464 1461 1459 1458 1456 1455 1454 1454 1453 1451 1450 1449 1447 1446 1446 1446 1445 1445 1443 1442 1441
1614 1616 1624 1632 1628 1628 1636 1633 1610 1580 1562 1562 1569 1575 1577 1569 1555 1547 1546 1546 1547 1547 1547 1546 1545 1545 1545 1542 1540 1537 1534 1532 1531 1528 1526 1524 1522 1520 1517 1515 1513 1510 1508 1507 1505 1504 1502 1498 1495 1493 1490 1488 1488 1486 1484 1481 1477 1475 1474 1472 1470 1469 1467 1464 1462 1459 1457 1455 1453 1451 1450 1449 1448 1448 1446 1445 1444 1442 1440 1441 1441 1440 1440 1439 1437 1436
1603 1598 1602 1610 1609 1610 1615 1604 1576 1557 1556 1559 1559 1561 1562 1554 1545 1545 1546 1544 1543 1543 1543 1542 1540 1540 1540 1537 1534 1531 1529 1527 1525 1523 1521 1519 1517 1516 1513 1510 1508 1506 1503 1502 1500 1499 1498 1494 1491 1488 1486 1484 1484 1482 1480 1477 1473 1471 1470 1468 1467 1465 1463 1461 1459 1456 1453 1451 1449 1447 1445 1444 1443 1442 1441 1440 1439 1436 1435 1435 1435 1435 1435 1434 1433 1431
1588 1583 1584 1588 1590 1588 1581 1569 1557 1554 1556 1555 1551 1549 1549 1546 1544 1546 1544 1540 1539 1538 1538 1537 1534 1533 1534 1533 1530 1526 1523 1522 1520 1518 1517 1514 1512 1510 1508 1505 1503 1501 1499 1497 1496 1495 1493 1490 1487 1484 1482 1481 1481 1479 1477 1475 1471 1468 1466 1465 1464 1462 1459 1457 1455 1452 1450 1448 1446 1444 1442 1440 1438 1437 1436 1436 1434 1432 1430 1430 1430 1430 1429 1429 1428 1426
1578 1579 1578 1577 1579 1577 1563 1553 1554 1555 1551 1550 1549 1546 1543 1542 1542 1543 1541 1537 1534 1532 1532 1532 1529 1527 1528 1527 1525 1522 1518 1517 1515 1514 1512 1509 1506 1505 1503 1500 1498 1497 1495 1493 1491 1491 1489 1486 1483 1481 1479 1478 1478 1477 1475 1473 1469 1466 1464 1463 1461 1458 1456 1454 1451 1448 1447 1444 1442 1441 1438 1436 1434 1433 1432 1431 1429 1427 1426 1425 1424 1424 1423 1423 1422 1421
1577 1578 1577 1574 1576 1573 1557 1545 1548 1549 1544 1544 1546 1542 1539 1538 1537 1537 1536 1533 1530 1529 1529 1527 1525 1523 1523 1521 1519 1517 1513 1512 1511 1508 1506 1504 1501 1499 1498 1496 1493 1492 1490 1489 1488 1486 1484 1482 1479 1477 1476 1475 1475 1474 1472 1470 1468 1465 1462 1460 1458 1455 1452 1450 1447 1445 1443 1441 1439 1437 1435 1432 1431 1429 1428 1426 1425 1423 1421 1420 1419 1418 1418 1417 1417 1417
1573 1574 1573 1570 1570 1566 1551 1539 1543 1545 1541 1539 1540 1538 1535 1533 1531 1532 1531 1528 1526 1525 1524 1522 1521 1520 1517 1515 1514 1512 1508 1506 1506 1503 1501 1498 1496 1494 1493 1491 1488 1487 1486 1484 1483 1482 1480 1477 1475 1473 1472 1471 1470 1470 1468 1466 1464 1463 1460 1457 1455 1452 1448 1446 1443 1440 1438 1436 1434 1432 1431 1429 1427 1425 1423 1422 1420 1418 1416 1416 1414 1413 1413 1413 1413 1413
1571 1570 1566 1563 1563 1560 1548 1537 1539 1543 1538 1532 1531 1531 1530 1529 1528 1528 1527 1524 1523 1521 1519 1518 1517 1515 1512 1510 1509 1507 1503 1500 1500 1499 1496 1492 1490 1488 1487 1486 1484 1482 1480 1480 1479 1477 1475 1472 1470 1469 1468 1466 1466 1465 1463 1462 1461 1459 1457 1454 1451 1448 1444 1441 1438 1435 1433 1431 1429 1427 1425 1424 1422 1420 1418 1416 1415 1414 1412 1411 1410 1409 1408 1409 1410 1409
1567 1560 1557 1559 1559 1554 1540 1528 1532 1537 1531 1524 1524 1527 1526 1526 1524 1522 1521 1519 1518 1516 1515 1513 1510 1509 1508 1505 1503 1502 1498 1494 1494 1493 1491 1487 1485 1484 1483 1481 1480 1478 1476 1476 1474 1472 1471 1469 1466 1465 1463 1462 1462 1461 1459 1458 1457 1455 1453 1451 1448 1444 1440 1437 1434 1431 1428 1426 1424 1422 1421 1419 1417 1415 1414 1411 1410 1409 1408 1407 1406 1405 1405 1405 1405 1405
1554 1547 1546 1546 1542 1536 1525 1521 1528 1530 1522 1518 1522 1524 1523 1522 1520 1517 1515 1514 1513 1512 1511 1509 1505 1503 1502 1500 1500 1498 1493 1490 1489 1488 1485 1482 1481 1480 1479 1478 1476 1473 1472 1471 1469 1467 1466 1465 1463 1461 1459 1458 1458 1457 1455 1454 1452 1451 1450 1447 1444 1441 1437 1434 1430 1427 1424 1422 1420 1418 1416 1414 1412 1411 1409 1407 1406 1405 1403 1403 1402 1401 1401 1401 1401 1400